Satellite: HAWKSAT1
Catalog number: 35003
Epoch time:      09153.85923822
Element set:      18
Inclination:      040.4717 deg
RA of node:       326.2150 deg
Eccentricity:    0.0026816
Arg of perigee:   063.7691 deg
Mean anomaly:     296.5880 deg
Mean motion:   15.39829972 rev/day
Decay rate:      2.609e-05 rev/day^2
Epoch rev:             214
Checksum:              300

Satellite: CP6
Catalog number: 35004
Epoch time:      09153.85831797
Element set:    0018
Inclination:      040.4631 deg
RA of node:       326.1835 deg
Eccentricity:    0.0028478
Arg of perigee:   058.7032 deg
Mean anomaly:     301.6568 deg
Mean motion:   15.39948102 rev/day
Decay rate:      3.168e-05 rev/day^2
Epoch rev:           00213
Checksum:              296

Satellite: AEROCUB3
Catalog number: 35005
Epoch time:      09155.22208032
Element set:      13
Inclination:      040.4765 deg
RA of node:       318.0744 deg
Eccentricity:    0.0026648
Arg of perigee:   069.8217 deg
Mean anomaly:     290.5457 deg
Mean motion:   15.39768439 rev/day
Decay rate:      3.336e-05 rev/day^2
Epoch rev:             234
Checksum:              290

/EX






More information about the Keps mailing list